Stations météo

Publicité
Montpellier, France (7643): Température de l'air & dewpoint: 18.01.2019 00:00:00 - 24.01.2019 00:00:00 (CET)Montpellier, France (7643): Température de l'air 5cm: 18.01.2019 00:00:00 - 24.01.2019 00:00:00 (CET)Montpellier, France (7643): Température de l'air -20cm & Température de l'air -100cm: 18.01.2019 00:00:00 - 24.01.2019 00:00:00 (CET)Montpellier, France (7643): Vitesse du vent & gusts: 18.01.2019 00:00:00 - 24.01.2019 00:00:00 (CET)Montpellier, France (7643): Direction du vent: 18.01.2019 00:00:00 - 24.01.2019 00:00:00 (CET)Montpellier, France (7643): reduced air pressure: 18.01.2019 00:00:00 - 24.01.2019 00:00:00 (CET)Montpellier, France (7643): visibility: 18.01.2019 00:00:00 - 24.01.2019 00:00:00 (CET)Montpellier, France (7643): Ensoleillement: 18.01.2019 00:00:00 - 24.01.2019 00:00:00 (CET)Montpellier, France (7643): Quantités de précipitations: 18.01.2019 00:00:00 - 24.01.2019 00:00:00 (CET)
Date & Time tt [°C] td [°C] tt 5cm [°C] tt -20cm [°C] tt -100cm [°C] ff [km/h] ff [knt] fx [km/h] fx [knt] dd ppp [hPa] vv [km] sd [min] rr [mm]
24.01.2019 00:00:00 3,8 -5,2 1,1 6,0 10,5 20 11 29 16 NW 997,6 60 0 0,0
23.01.2019 23:00:00 4,3 -5,8 1,3 6,1 10,5 20 11 33 18 NW 997,5 60 0 0,0
23.01.2019 22:00:00 4,0 -6,0 1,3 6,2 10,5 21 11 45 25 NNW 997,4 60 0 0,0
23.01.2019 21:00:00 5,0 -6,0 1,3 6,3 10,5 26 14 38 21 NNW 997,5 60 0 0,0
23.01.2019 20:00:00 4,6 -4,9 1,3 6,5 10,5 19 10 35 19 NNW 997,1 60 0 0,0
23.01.2019 19:00:00 5,2 -4,7 2,0 6,5 10,5 26 14 50 27 NNW 996,6 60 0 0,0
23.01.2019 18:00:00 5,7 -3,7 2,8 6,6 10,5 35 19 54 29 NNW 995,8 60 18 0,0
23.01.2019 17:00:00 5,9 1,6 4,1 6,5 10,5 13 7 28 15 NNE 994,9 60 60 0,0
23.01.2019 16:00:00 6,7 3,5 4,1 6,4 10,5 16 9 64 34 N 994,1 60 10 0,0
23.01.2019 15:00:00 6,1 2,0 4,8 6,3 10,5 31 17 61 33 WNW 993,1 11 0 0,6
23.01.2019 14:00:00 10,0 1,9 11,6 6,1 10,5 18 10 31 17 W 993,3 40 50 0,0
23.01.2019 13:00:00 7,2 2,9 7,1 5,9 10,5 4 2 8 5 SSE 995,0 19 15 0,0
23.01.2019 12:00:00 5,3 1,8 5,4 5,9 10,5 5 3 8 4 NE 996,4 20 0 0,0
23.01.2019 11:00:00 4,1 0,8 3,8 5,8 10,5 0 0 7 4 N 997,0 20 0 0,0
23.01.2019 10:00:00 3,4 0,6 1,2 5,8 10,5 5 3 9 5 NNE 997,4 30 14 0,0
23.01.2019 09:00:00 3,6 0,5 0,0 5,8 10,5 8 4 14 8 W 997,0 29 0 0,0
23.01.2019 08:00:00 3,9 0,8 0,0 5,8 10,5 5 3 19 10 W 997,4 52 0 0,0
23.01.2019 07:00:00 4,3 0,6 2,6 5,8 10,5 0 0 9 5 N 998,4 60 0 0,0
23.01.2019 06:00:00 3,9 -0,5 2,6 5,8 10,5 9 5 18 10 NW 999,1 60 0 0,0
23.01.2019 05:00:00 4,4 -0,6 1,7 5,9 10,6 13 7 17 9 W 999,8 60 0 0,0
23.01.2019 04:00:00 4,2 -1,4 2,1 5,9 10,6 15 8 21 12 W 1001,0 60 0 0,0
23.01.2019 03:00:00 4,8 -1,7 1,6 5,9 10,5 14 7 28 15 WSW 1001,8 60 0 0,0
23.01.2019 02:00:00 5,2 -2,9 1,1 6,0 10,6 18 10 33 18 NW 1002,1 60 0 0,0
23.01.2019 01:00:00 4,1 -2,5 0,9 6,1 10,6 23 12 30 16 W 1002,7 60 0 0,0
23.01.2019 00:00:00 5,0 -1,0 0,7 6,1 10,6 13 7 26 14 W 1003,5 60 0 0,0
22.01.2019 23:00:00 5,2 0,4 3,0 6,1 10,6 18 10 26 14 W 1003,9 60 0 0,0
22.01.2019 22:00:00 5,2 0,6 2,9 6,1 10,6 17 9 30 16 W 1004,4 60 0 0,0
22.01.2019 21:00:00 5,9 1,0 3,7 6,1 10,6 21 12 28 15 W 1005,2 60 0 0,0
22.01.2019 20:00:00 5,2 1,9 3,7 6,1 10,6 12 6 29 16 WSW 1005,8 43 0 0,2
22.01.2019 19:00:00 6,5 0,2 5,9 6,0 10,6 24 13 32 18 W 1006,0 60 0 0,0
22.01.2019 18:00:00 7,2 -2,8 4,4 6,0 10,6 18 10 26 14 W 1005,8 60 0 0,0
22.01.2019 17:00:00 7,1 -4,4 5,4 5,9 10,6 14 8 29 16 W 1005,9 60 0 0,0
22.01.2019 16:00:00 7,3 -3,9 6,4 5,8 10,6 5 3 16 9 S 1006,2 60 0 0,0
22.01.2019 15:00:00 6,6 -0,9 7,1 5,7 10,6 10 5 13 7 SE 1007,2 20 16 0,0
22.01.2019 14:00:00 7,6 -3,6 9,4 5,4 10,6 4 2 8 5 SSE 1008,4 20 60 0,0
22.01.2019 13:00:00 5,9 -3,7 10,3 5,3 10,6 5 3 12 7 SE 1009,8 20 60 0,0
22.01.2019 12:00:00 5,7 -4,5 8,9 5,2 10,6 2 1 13 7 ESE 1011,7 20 60 0,0
22.01.2019 11:00:00 5,1 -4,2 8,2 5,1 10,6 5 3 10 5 E 1012,6 20 60 0,0
22.01.2019 10:00:00 4,3 -4,7 3,1 5,2 10,6 9 5 17 9 NNW 1013,3 20 60 0,0
22.01.2019 09:00:00 1,6 -4,7 -4,5 5,3 10,6 6 3 15 8 N 1013,3 20 26 0,0
22.01.2019 08:00:00 1,5 -5,2 -6,3 5,5 10,7 5 3 14 8 W 1013,6 59 0 0,0
22.01.2019 07:00:00 2,5 -4,9 -4,0 5,5 10,6 11 6 17 9 NW 1013,6 60 0 0,0
22.01.2019 06:00:00 1,7 -4,8 -4,2 5,6 10,6 5 3 14 7 NNW 1013,7 60 0 0,0
22.01.2019 05:00:00 2,8 -3,8 -5,0 5,8 10,6 12 6 22 12 WNW 1014,2 60 0 0,0
22.01.2019 04:00:00 1,5 -4,4 -3,9 5,9 10,6 3 1 20 11 NNW 1015,0 60 0 0,0
22.01.2019 03:00:00 3,8 -3,0 -5,3 6,0 10,6 18 10 22 12 NW 1015,8 60 0 0,0
22.01.2019 02:00:00 -0,6 -3,8 -5,3 6,1 10,6 5 3 7 4 NW 1016,3 55 0 0,0
22.01.2019 01:00:00 0,6 -3,5 -4,6 6,3 10,7 5 3 9 5 W 1017,0 50 0 0,0
22.01.2019 00:00:00 2,5 -2,6 -4,1 6,4 10,7 0 0 8 4 N 1017,3 60 0 0,0
21.01.2019 23:00:00 4,9 -2,7 -0,4 6,5 10,7 8 4 19 10 WNW 1017,0 60 0 0,0
21.01.2019 22:00:00 6,1 -2,5 -2,4 6,6 10,7 13 7 18 10 NW 1017,1 60 0 0,0
21.01.2019 21:00:00 3,0 -1,9 -3,0 6,8 10,7 11 6 14 7 NNW 1016,9 60 0 0,0
21.01.2019 20:00:00 4,7 -1,8 -1,5 6,9 10,7 8 4 10 5 NNW 1017,2 60 0 0,0
21.01.2019 19:00:00 6,4 -1,3 -0,9 6,9 10,7 10 5 17 9 NW 1016,6 58 0 0,0
21.01.2019 18:00:00 6,5 -0,7 2,3 6,9 10,7 13 7 16 9 NNW 1016,1 60 0 0,0
21.01.2019 17:00:00 8,8 0,0 6,3 6,8 10,7 10 5 16 9 NNW 1015,9 60 0 0,0
21.01.2019 16:00:00 10,6 1,4 9,8 6,7 10,7 13 7 19 10 N 1015,7 60 0 0,0
21.01.2019 15:00:00 11,6 0,4 10,8 6,4 10,7 10 6 26 14 N 1015,4 60 40 0,0
21.01.2019 14:00:00 12,2 1,5 15,8 6,2 10,7 8 5 19 10 W 1015,9 20 60 0,0
21.01.2019 13:00:00 11,3 2,3 14,3 6,0 10,7 15 8 22 12 NW 1016,5 60 60 0,0
21.01.2019 12:00:00 9,8 3,1 12,8 5,8 10,7 10 5 17 9 NW 1017,1 60 60 0,0
21.01.2019 11:00:00 8,2 3,8 7,5 5,8 10,7 8 5 14 8 N 1017,6 43 60 0,0
21.01.2019 10:00:00 4,6 3,1 0,9 5,8 10,7 9 5 13 7 N 1017,3 10 55 0,0
21.01.2019 09:00:00 1,7 0,2 -1,9 5,8 10,7 9 5 14 8 ENE 1017,1 13 24 0,0
21.01.2019 08:00:00 2,5 1,0 -2,4 6,0 10,7 11 6 13 7 WNW 1016,2 32 0 0,0
21.01.2019 07:00:00 2,4 1,2 -2,4 6,0 10,7 11 6 16 9 NW 1015,8 27 0 0,0
21.01.2019 06:00:00 1,4 0,7 -3,0 6,1 10,7 9 5 10 5 NW 1015,5 14 0 0,0
21.01.2019 05:00:00 1,1 0,4 -1,9 6,2 10,7 5 3 14 7 NW 1015,2 14 0 0,0
21.01.2019 04:00:00 -0,2 -1,0 -2,1 6,3 10,7 5 3 7 4 NNW 1015,3 2,6 0 0,0
21.01.2019 03:00:00 -0,4 -1,2 -3,0 6,4 10,7 3 2 7 4 NE 1015,7 1,2 0 0,0
21.01.2019 02:00:00 1,7 1,0 -2,2 6,5 10,7 3 2 8 4 W 1015,3 1,6 0 0,0
21.01.2019 01:00:00 0,5 -0,5 -1,9 6,6 10,7 6 3 10 5 NNE 1015,4 0,4 0 0,0
21.01.2019 00:00:00 2,6 1,7 -1,2 6,7 10,7 8 4 9 5 NW 1015,3 2,9 0 0,0
20.01.2019 23:00:00 3,6 2,4 -0,5 6,8 10,7 8 4 12 7 WNW 1014,9 9 0 0,0
20.01.2019 22:00:00 4,5 3,3 1,4 6,8 10,7 11 6 13 7 NW 1014,6 4,9 0 0,0
20.01.2019 21:00:00 4,8 3,5 2,3 6,9 10,7 8 5 14 7 WNW 1014,6 11 0 0,0
20.01.2019 20:00:00 5,0 3,7 0,6 6,9 10,7 8 4 15 8 WNW 1014,5 5 0 0,0
20.01.2019 19:00:00 5,5 4,1 -0,3 7,0 10,7 9 5 13 7 NW 1014,2 2,6 0 0,0
20.01.2019 18:00:00 5,8 4,0 2,2 6,9 10,7 6 4 9 5 NNW 1013,8 6 0 0,0
20.01.2019 17:00:00 7,2 5,2 6,4 6,8 10,7 7 4 10 5 NW 1013,6 17 0 0,0
20.01.2019 16:00:00 7,0 5,1 6,7 6,7 10,7 5 3 11 6 N 1013,4 16 0 0,2
20.01.2019 15:00:00 6,8 5,1 6,7 6,6 10,7 8 4 14 8 N 1013,3 9 0 0,6
20.01.2019 14:00:00 6,7 5,2 6,8 6,6 10,7 11 6 17 9 NNE 1013,3 12 0 0,7
20.01.2019 13:00:00 6,4 5,0 5,8 6,5 10,8 12 6 18 10 NNE 1013,5 9 0 0,8
20.01.2019 12:00:00 5,7 4,5 5,2 6,5 10,8 10 6 18 10 NNE 1013,7 7 0 1,8
20.01.2019 11:00:00 5,3 4,1 4,5 6,4 10,7 11 6 21 11 NNE 1013,3 7 0 1,6
20.01.2019 10:00:00 4,7 3,4 4,2 6,4 10,7 16 9 23 13 NNE 1012,5 7 0 1,6
20.01.2019 09:00:00 4,7 3,2 3,8 6,4 10,7 18 10 29 16 NNE 1012,1 18 0 0,2
20.01.2019 08:00:00 4,3 3,1 3,9 6,4 10,7 17 9 24 13 NNE 1011,6 8 0 1,6
20.01.2019 07:00:00 4,5 3,2 3,8 6,3 10,7 11 6 23 13 N 1011,3 10 0 0,8
20.01.2019 06:00:00 4,8 2,7 3,5 6,4 10,8 6 3 40 22 N 1011,2 6 0 0,4
20.01.2019 05:00:00 4,6 1,8 3,3 6,3 10,7 16 9 22 12 NNE 1011,3 19 0 0,0
20.01.2019 04:00:00 4,2 1,4 2,6 6,3 10,7 13 7 23 12 NNE 1011,7 17 0 0,0
20.01.2019 03:00:00 3,7 0,6 2,5 6,4 10,8 15 8 19 10 NNE 1012,0 19 0 0,0
20.01.2019 02:00:00 3,6 0,5 -0,7 6,5 10,8 13 7 19 11 NNE 1012,0 17 0 0,0
20.01.2019 01:00:00 1,5 -0,4 -1,3 6,6 10,8 12 7 16 9 NNE 1012,4 15 0 0,0
20.01.2019 00:00:00 2,2 -0,2 -1,5 6,7 10,8 8 4 12 7 NE 1012,6 13 0 0,0
19.01.2019 23:00:00 2,4 0,0 -1,5 6,8 10,7 8 5 12 7 NNE 1012,6 14 0 0,0
19.01.2019 22:00:00 2,3 0,2 -2,8 6,9 10,8 11 6 12 6 ENE 1012,7 14 0 0,0
19.01.2019 21:00:00 4,4 0,5 -1,1 6,9 10,8 7 4 8 5 NNW 1012,6 20 0 0,0
19.01.2019 20:00:00 6,9 1,8 3,4 6,9 10,8 5 3 9 5 WNW 1012,6 37 0 0,0
19.01.2019 19:00:00 7,5 2,4 1,8 6,9 10,7 5 3 8 5 W 1012,6 31 0 0,0
19.01.2019 18:00:00 7,4 2,7 2,4 6,9 10,7 3 2 7 4 SSW 1012,5 60 11 0,0
19.01.2019 17:00:00 9,1 2,6 7,4 6,9 10,8 6 3 11 6 S 1012,6 60 9 0,0
19.01.2019 16:00:00 8,9 0,8 8,2 6,7 10,8 9 5 16 8 SSW 1012,9 57 33 0,0
19.01.2019 15:00:00 10,1 -1,3 12,3 6,4 10,7 7 4 14 7 S 1013,2 20 60 0,0
19.01.2019 14:00:00 9,4 -2,3 13,4 6,2 10,7 10 5 14 8 SSW 1013,8 60 60 0,0
19.01.2019 13:00:00 9,3 -3,0 12,3 6,0 10,7 6 3 11 6 S 1014,7 60 60 0,0
19.01.2019 12:00:00 9,0 -3,6 9,7 5,9 10,7 4 2 17 9 - 1015,6 10 60 0,0
19.01.2019 11:00:00 5,7 -5,0 6,2 5,8 10,7 11 6 16 9 NNE 1016,1 60 60 0,0
19.01.2019 10:00:00 3,5 -3,3 -0,6 5,9 10,7 6 4 13 7 N 1015,7 57 58 0,0
19.01.2019 09:00:00 -0,2 -5,6 -4,8 6,0 10,8 4 2 11 6 NNW 1015,7 57 14 0,0
19.01.2019 08:00:00 -1,1 -5,3 -5,1 6,2 10,8 10 5 19 10 NNW 1015,4 58 0 0,0
19.01.2019 07:00:00 -2,5 -6,7 -7,3 6,3 10,7 8 5 13 7 N 1015,0 59 0 0,0
19.01.2019 06:00:00 -2,1 -6,5 -6,8 6,5 10,8 6 3 8 4 NNE 1015,0 59 0 0,0
19.01.2019 05:00:00 -0,8 -6,2 -5,7 6,6 10,7 4 2 6 4 NW 1015,4 59 0 0,0
19.01.2019 04:00:00 2,1 -4,9 -3,6 6,7 10,8 5 3 11 6 NW 1015,7 60 0 0,0
19.01.2019 03:00:00 2,4 -3,7 -2,4 6,8 10,7 5 3 9 5 NNW 1016,1 35 0 0,0
19.01.2019 02:00:00 1,6 -3,7 -2,5 7,0 10,8 5 3 9 5 N 1016,1 30 0 0,0
19.01.2019 01:00:00 2,0 -3,1 -3,4 7,1 10,8 6 3 9 5 N 1016,5 20 0 0,0
19.01.2019 00:00:00 2,1 -2,8 -1,5 7,2 10,7 6 4 9 5 NNE 1016,8 33 0 0,0
18.01.2019 23:00:00 2,8 -1,4 0,8 7,3 10,8 9 5 11 6 NE 1016,4 45 0 0,0
18.01.2019 22:00:00 5,2 -2,2 -0,8 7,4 10,7 6 3 9 5 W 1015,9 36 0 0,0
18.01.2019 21:00:00 4,9 -2,7 -1,7 7,5 10,8 4 2 14 8 NW 1015,9 41 0 0,0
18.01.2019 20:00:00 3,7 -2,3 0,2 7,6 10,7 11 6 13 7 NE 1015,9 40 0 0,0
18.01.2019 19:00:00 5,1 -1,6 1,6 7,6 10,7 8 4 13 7 NNE 1015,9 46 0 0,0
18.01.2019 18:00:00 5,9 -0,2 1,6 7,7 10,7 6 3 8 4 ENE 1015,6 60 0 0,0
18.01.2019 17:00:00 7,9 -0,3 5,2 7,6 10,7 0 0 17 9 N 1015,4 60 6 0,0
18.01.2019 16:00:00 9,6 -2,1 8,7 7,5 10,7 9 5 18 10 ENE 1015,1 60 4 0,0
18.01.2019 15:00:00 10,6 -2,1 10,3 7,4 10,7 10 6 19 11 NNW 1015,2 60 9 0,0
18.01.2019 14:00:00 10,5 -0,6 10,8 7,2 10,7 13 7 23 12 NNW 1015,8 60 18 0,0
18.01.2019 13:00:00 11,3 0,1 11,4 7,0 10,7 10 5 20 11 NNW 1016,4 60 34 0,0
18.01.2019 12:00:00 10,1 0,1 11,9 6,9 10,7 9 5 27 15 NNW 1017,2 60 38 0,0
18.01.2019 11:00:00 9,7 0,8 9,5 6,8 10,7 19 10 28 15 NW 1017,7 60 53 0,0
18.01.2019 10:00:00 7,5 0,7 5,8 6,9 10,7 21 11 30 16 W 1018,0 20 60 0,0
18.01.2019 09:00:00 5,2 -0,4 -0,2 6,9 10,7 23 12 30 16 W 1017,8 56 23 0,0
18.01.2019 08:00:00 3,8 -1,2 -2,0 7,0 10,7 8 5 18 10 W 1017,3 48 0 0,0
18.01.2019 07:00:00 5,0 -1,0 2,1 7,1 10,7 19 10 27 15 WNW 1017,4 60 0 0,0
18.01.2019 06:00:00 5,5 -1,0 1,6 7,2 10,7 20 11 32 17 WNW 1017,2 60 0 0,0
18.01.2019 05:00:00 5,0 -0,6 -0,2 7,3 10,7 16 9 21 11 W 1017,5 60 0 0,0
18.01.2019 04:00:00 5,0 -0,8 0,3 7,4 10,7 11 6 23 13 W 1017,7 60 0 0,0
18.01.2019 03:00:00 5,7 -0,4 -3,1 7,6 10,7 16 9 21 11 WNW 1018,1 60 0 0,0
18.01.2019 02:00:00 5,9 -1,1 -3,0 7,8 10,7 9 5 14 7 WNW 1017,9 60 0 0,0
18.01.2019 01:00:00 5,2 -0,2 -1,6 7,9 10,7 0 0 19 10 N 1018,1 60 0 0,0
18.01.2019 00:00:00 5,2 -1,9 1,1 8,0 10,7 9 5 22 12 NNW 1018,2 60 0 0,0

tt = Température de l'air
td = dewpoint
tt 5cm = Température de l'air 5cm
tt -20cm = Température de l'air -20cm
tt -100cm = Température de l'air -100cm
ff = Vitesse du vent
fx = gusts
dd = Direction du vent
ppp = reduced air pressure
vv = visibility
sd = Ensoleillement
rr = Quantités de précipitations

stations d'obs. à proximité